Location: Clarion
(42.7316°N, 93.7330°W)
Time: 09:52:18
(UTC+00:00)

Cosmos 2173 Rocket - Pass Details

Date: 22 April 2026
Orbit: 944 x 999 km, 83.0° (Epoch: 17 May)

Event Time Altitude Azimuth Distance (km) Brightness Sun altitude
Exits shadow 04:37:52 63° 37° (NE) 1,049 4.1 -30.9°
Drops below altitude 10° 04:43:03 10° 11° (N) 2,679 6.9 -31.3°
Sets 04:45:34 0° 10° (N) 3,632 7.7 -31.5°
